Regional Weather Roundup
Issued by NWS

Home | Current Version | Previous Version | Text Only | Print | Product List | Glossary Off
Versions: 1 2 3 4 5 6 7 8 9 10 11 12 13 14 15 16 17 18 19 20 21 22 23 24 25 26 27 28 29 30 31 32 33 34 35 36 37 38 39 40 41 42 43 44 45 46 47 48 49 50

000
ASUS43 KMKX 031411
RWRWI

WISCONSIN REGIONAL WEATHER ROUNDUP
NATIONAL WEATHER SERVICE MILWAUKEE/SULLIVAN WI
900 AM CDT THU SEP 03 2015

NOTE: "FAIR" INDICATES FEW OR NO CLOUDS BELOW 12,000 FEET WITH NO
SIGNIFICANT WEATHER AND/OR OBSTRUCTIONS TO VISIBILITY.

WIZ001-002-006>008-014>016-023>028-031500-
NORTHWEST WISCONSIN

CITY           SKY/WX    TMP DP  RH WIND       PRES   REMARKS
SUPERIOR ARPT  FOG       59  59 100 NE6       30.00R VSB 1/4
ASHLAND        FOG       62  62 100 CALM      30.01R VSB 1/4
HAYWARD        CLOUDY    64  63  96 E3        29.99R
SIREN          FOG       64  63  97 E7        29.96S VSB 3/4
CUMBERLAND     CLOUDY    64  63  94 E5        29.97R
RICE LAKE      CLOUDY    65  64  96 E6        29.98S
CHETEK         CLOUDY   N/A N/A N/A E6        29.97R HAZE
LADYSMITH      CLOUDY    66  65  97 E7        30.00S
EAU CLAIRE     CLOUDY    66  65  96 E10       29.95R FOG
MENOMONIE      CLOUDY    68  68  99 E6        29.95R FOG
NEW RICHMOND   CLOUDY    68  68 100 E7        29.95R FOG
OSCEOLA        CLOUDY    69  69 100 SE7       29.97R
$$

WIZ003>005-009-010-017-018-031500-
NORTH CENTRAL WISCONSIN

CITY           SKY/WX    TMP DP  RH WIND       PRES   REMARKS
MANITOWISH WTR MOSUNNY   64  63  98 CALM      30.01R
ARBOR VITAE    SUNNY     68  64  86 NE3       30.00S
WOODRUFF       SUNNY     68  64  86 NE3       30.00S
RHINELANDER    CLOUDY    66  62  87 VRB5      30.00S
EAGLE RIVER    SUNNY     66  62  89 E5        30.00S
LAND O LAKES   SUNNY     66  62  86 E3        30.02R
PHILLIPS       CLOUDY    66  63  91 E6        29.99S
TOMAHAWK       CLOUDY    65  63  91 CALM      30.00S
MEDFORD        CLOUDY    65  65 100 NE6       29.99R FOG
MERRILL        CLOUDY    66  66  99 NE5       29.99S
$$

WIZ029-030-035-036-043>047-031500-
CENTRAL WISCONSIN

CITY           SKY/WX    TMP DP  RH WIND       PRES   REMARKS
WAUSAU         CLOUDY    67  64  90 N5        29.97R
MOSINEE        CLOUDY    66  66 100 NE7       29.99R
MARSHFIELD     CLOUDY    66  63  90 NE8       29.97S
STEVENS POINT  CLOUDY    65  63  96 N6        29.98R
WAUPACA        CLOUDY    69  68  98 N3        29.95S
WAUTOMA        CLOUDY    70  70 100 N6        29.95R
WISC RAPIDS    CLOUDY    68  64  87 N9        29.97R
CAMP DOUGLAS   PTSUNNY   73  73 100 N5        29.94R
$$

WIZ011>013-019>022-031-037>040-048>050-031500-
NORTHEAST WISCONSIN

CITY           SKY/WX    TMP DP  RH WIND       PRES   REMARKS
ANTIGO         CLOUDY    65  64  96 N7        29.98S
SHAWANO        NOT AVBL
OCONTO         CLOUDY    67  67 100 N6        29.91S
STURGEON BAY   CLOUDY    66  64  94 N6        29.93S
GREEN BAY      CLOUDY    69  67  93 NW9       29.92S
MANITOWOC      CLOUDY    71  68  90 MISG      29.92R
APPLETON       CLOUDY    66  66 100 NW9       29.93S
CLINTONVILLE   CLOUDY    68  64  88 N3        29.94S
OSHKOSH        CLOUDY    70  66  87 N12       29.93S
$$

WIZ032>034-041-042-053>061-031500-
SOUTHWEST WISCONSIN

CITY           SKY/WX    TMP DP  RH WIND       PRES   REMARKS
LA CROSSE      SUNNY     75  70  84 CALM      29.92S
SPARTA         CLOUDY    70  67  90 CALM      29.94S
VIROQUA          N/A     74  73  98 CALM      29.96R
BOSCOBEL       SUNNY     76  70  82 NE3       29.93S
PRAIRIE DU CHI SUNNY     76  68  76 CALM      29.92S
PLATTEVILLE    SUNNY     76  72  87 SW3       29.95S
$$

WIZ056-057-062-063-064-067-068-031500-
SOUTH CENTRAL WISCONSIN

CITY           SKY/WX    TMP DP  RH WIND       PRES   REMARKS
REEDSBURG      SUNNY     75  70  85 S3        29.94S
BARABOO/DELLS  SUNNY     75  68  78 S5        29.94S
LONE ROCK      SUNNY     77  69  76 CALM      29.94S
MINERAL POINT  SUNNY     77  70  78 W6        29.95S
MADISON        MOSUNNY   76  69  79 NW5       29.94R
MIDDLETON      MOSUNNY   78  70  75 W6        29.95R HX  81
WATERTOWN      SUNNY     74  74 100 SW3       29.93F
MONROE         SUNNY     77  68  73 SW9       29.95S
JANESVILLE     MOSUNNY   77  70  78 SW9       29.93F
$$

WIZ051-052-058>065-066-070>072-031500-
SOUTHEAST WISCONSIN

CITY           SKY/WX    TMP DP  RH WIND       PRES   REMARKS
MILWAUKEE      MOSUNNY   76  68  76 W7        29.92S
WAUKESHA       MOSUNNY   73  68  83 SW6       29.95S
MILWAUKEE/TIMM SUNNY     75  66  73 W8        29.93F
RACINE         MOSUNNY   78  68  71 W10       29.94S HX  80
BURLINGTON     SUNNY     76  67  74 W10       29.94S
KENOSHA        SUNNY     79  70  74 W13       29.94S HX  82
FOND DU LAC    CLOUDY    72  70  93 N8        29.93S
SHEBOYGAN      CLOUDY    74  71  91 N5        29.92R FOG
WEST BEND      MOSUNNY   75  68  78 W8        29.92S
JUNEAU         SUNNY     73  69  89 SW5       29.95R
$$

LSZ147-162-031500-
LAKE SUPERIOR

STATION/POSITION TIME  TEMP    WIND        PRES    WAVE
                       AIR SEA DIR/SP/G            HT/PER
                 (UTC) (F)     (DEG/KT/KT) (MB)    (FT/S)
W MID LAKE BUOY  1350   56 56  110/  2/  2 1016.4R   0
DEVILS ISLAND    1400   58      50/  8/  8 1016.3R
PORT WING        1300   59      20/  5/  6 1015.6R
SAXON HARBOR     1340   62        CALM     1015.2R
$$

LMZ867-665-643>646-031500-
LAKE MICHIGAN

STATION/POSITION TIME  TEMP    WIND        PRES    WAVE
                       AIR SEA DIR/SP/G            HT/PER
                 (UTC) (F)     (DEG/KT/KT) (MB)    (FT/S)
CHAMBERS ISLAND  1300   64      30/  7/  9 1013.2R
S GREEN BAY BUOY 1300   66 66  340/  8/ 10 1014.2R
N MID LAKE BUOY  1350   67 65  110/ 14/ 16 1012.5R   3/ 5
NORTHPORT PIER   1300   66      80/  6/  9 1013.2S
SISTER BAY       1311   67     120/  5/  9   N/A
ALGOMA LAKESHORE 1344          320/  9/ 14   N/A
KEWAUNEE LAKESHO 1300   67     290/  6/ 10 1011.4F
SHEBOYGAN LAKESH 1400   62      10/  4/  5 1013.1R
PORT WASHINGTON  1300   74     260/  5/  8 1013.2S
ATWATER BUOY     1400   68     250/  8/ 10 1014.6R
MILWAUKEE LAKESH 1310   75     260/  6/  7   N/A
S MID LAKE BUOY  1350   73 71  230/ 12/ 14 1012.8R
KENOSHA   LAKESH 1400   79     250/ 12/ 17 1013.2S
$$

TC  - TEMPERATURE IN CELSIUS
VSB - VISIBILITY IN STATUTE MILES
WCI - WIND CHILL INDEX
HX  - HEAT INDEX



USA.gov is the U.S. government's official web portal to all federal, state and local government web resources and services.